GFSNGP_prec_cthk_000.txt.gz
RH
55 57 62 56 57 60 65 59 73 61 61 60 65 67 71 73 73 72 75 75 72 69 70 70 62 58 54 54 53 50 51 52 53 58 65 69 74 77 87 95 88 83 79 69
56 59 67 62 60 60 60 60 61 61 58 66 72 76 77 76 72 72 77 79 78 75 67 64 59 55 53 57 53 50 56 62 66 71 79 84 89 95 93 92 89 87 73 56
64 71 76 66 57 54 55 52 57 64 63 68 73 77 82 78 72 78 84 80 70 66 66 62 55 57 58 52 51 52 59 68 75 84 88 92 91 90 91 89 86 72 54 41
83 83 88 54 52 53 56 58 57 65 69 71 73 71 71 79 82 86 81 66 64 70 64 62 64 60 54 54 55 59 61 68 81 87 92 91 89 86 88 85 67 51 40 31
84 88 73 60 56 58 64 65 65 70 68 67 67 67 68 72 79 84 76 74 67 71 73 69 65 62 65 67 67 72 66 74 79 90 95 91 89 81 74 61 48 40 33 29
85 90 84 61 59 62 70 72 70 70 69 72 76 79 74 80 85 85 84 81 75 71 74 74 72 68 74 77 79 79 75 82 92 93 89 82 77 67 56 48 40 33 30 30
87 87 77 60 63 73 81 70 75 73 74 77 82 87 89 90 84 79 79 73 75 70 65 68 72 72 81 78 77 81 89 94 90 84 76 67 59 54 47 39 34 33 30 31
87 91 87 72 80 89 85 81 81 70 74 83 85 88 90 88 86 84 70 69 64 58 62 68 69 77 78 77 81 85 90 86 74 65 59 56 51 45 39 37 36 34 33 31
79 78 72 78 81 79 84 82 75 80 85 88 86 85 85 82 77 64 69 70 65 64 68 67 78 76 65 76 84 87 79 64 56 54 51 48 42 40 41 41 38 36 35 33
89 68 75 80 75 77 80 80 83 82 81 82 79 84 85 87 82 75 66 63 66 69 74 74 78 76 78 86 85 71 59 53 51 49 46 43 43 45 49 46 42 42 39 37
86 80 78 79 79 80 86 85 79 84 92 95 83 71 72 76 71 61 55 61 67 73 82 84 79 79 84 81 69 58 54 51 48 46 44 46 52 55 57 56 54 49 43 44
80 84 84 72 80 81 79 78 90 92 95 84 75 72 74 69 63 57 58 64 71 72 73 76 80 83 81 71 61 56 51 45 43 45 47 51 58 62 69 67 65 57 51 49
85 86 84 84 84 82 76 86 82 74 74 70 66 71 72 71 59 58 57 56 60 66 73 84 84 82 76 65 56 50 43 44 47 49 55 61 66 74 69 70 69 59 56 56
88 83 82 84 80 77 80 78 71 69 67 68 67 72 64 59 55 51 50 58 71 84 91 84 81 82 71 55 48 48 50 46 46 57 65 71 80 77 75 71 69 65 59 62
77 69 69 70 70 72 69 69 72 69 68 64 63 58 56 52 48 56 64 69 83 88 84 80 80 70 50 43 49 53 50 45 56 67 76 82 79 78 80 79 76 70 59 83
59 63 65 70 74 67 61 61 72 63 58 58 52 49 48 48 56 65 68 80 83 82 81 72 58 41 37 42 49 50 49 55 66 72 78 79 80 83 86 81 76 66 70 98
67 75 75 68 60 56 58 60 59 58 54 46 44 43 48 54 65 73 87 87 86 80 69 51 38 37 38 40 43 46 54 66 72 78 80 80 84 88 84 79 75 67 94 98
63 63 55 55 50 49 50 51 46 45 44 43 43 46 53 61 68 87 90 85 79 68 50 36 30 31 33 37 43 53 62 69 77 80 80 85 91 89 84 84 80 80 88 98
52 57 65 69 68 65 56 49 43 46 45 43 46 53 61 65 87 91 86 80 67 43 32 26 25 29 34 42 52 60 66 74 80 79 83 91 93 89 87 88 92 84 84 97
69 71 70 64 56 53 47 48 48 44 44 47 52 60 67 85 93 88 81 66 43 32 23 26 29 34 42 49 56 63 69 75 80 82 90 93 94 89 88 92 92 86 80 93
61 59 55 50 40 38 43 47 52 47 45 52 56 64 85 95 91 85 72 49 37 27 29 34 37 42 47 50 56 61 67 72 80 87 94 96 94 88 88 92 89 82 77 88
38 41 42 42 40 42 43 44 50 56 58 69 66 75 97 94 88 77 56 39 32 29 33 37 41 47 49 52 54 61 66 74 84 90 93 96 94 87 86 91 89 80 76 83
45 45 45 47 49 48 46 51 68 71 72 83 78 92 95 92 84 67 47 37 33 32 34 37 43 49 54 56 59 63 68 75 86 88 91 94 95 90 83 90 92 88 78 76
49 47 46 45 49 55 58 70 79 79 88 85 89 98 96 92 77 56 43 36 35 33 35 38 43 49 55 58 61 64 68 72 81 88 89 91 94 91 84 84 91 90 86 77
45 47 51 58 65 71 81 93 93 87 83 91 98 98 96 87 70 49 35 37 36 34 36 38 42 46 53 60 63 65 68 72 76 81 88 88 90 91 87 82 83 86 81 79
59 63 65 70 72 76 86 90 76 73 90 98 98 97 94 84 71 50 36 40 40 37 38 40 43 45 50 59 66 69 71 74 77 79 81 85 89 89 88 84 83 81 79 77
62 64 69 70 75 81 81 78 69 81 96 97 96 96 93 87 75 56 43 43 43 43 45 46 45 45 48 54 63 69 71 73 76 78 80 81 84 90 91 87 84 85 85 86

GFSNGP_prec_cthk_006.txt.gz
RH
49 49 49 48 51 58 70 68 77 60 64 57 58 59 61 62 63 62 63 64 65 68 69 69 69 65 66 67 63 65 62 64 62 64 66 63 63 64 71 85 95 98 98 98
55 56 59 58 55 63 66 66 68 67 66 57 56 65 67 63 66 67 71 74 74 72 70 71 69 63 63 64 74 67 62 67 69 64 63 68 72 81 90 97 97 96 93 91
61 61 64 54 51 63 63 61 60 62 55 57 64 69 68 65 69 72 75 76 77 76 68 64 66 67 70 67 61 62 61 60 69 69 67 71 78 84 92 92 89 88 85 79
77 75 84 54 55 62 62 61 58 60 62 67 69 70 74 76 74 76 78 76 77 68 71 72 76 70 64 64 62 60 57 63 71 75 68 75 82 82 77 73 69 68 65 63
82 86 78 61 58 61 64 62 61 65 70 73 76 74 78 79 80 85 88 79 73 73 75 75 68 61 64 63 62 64 64 60 66 67 69 74 66 62 59 59 59 56 53 49
90 95 91 64 67 68 71 74 74 76 80 83 82 81 78 84 89 87 74 72 71 73 71 68 60 63 65 66 65 66 66 69 75 76 65 57 53 53 53 49 43 39 39 42
90 96 83 67 71 75 86 80 79 84 83 81 88 91 92 92 89 79 69 65 75 71 65 58 60 63 64 64 65 67 73 78 80 67 58 52 49 45 39 38 38 41 42 46
90 94 86 74 80 87 81 77 82 85 84 92 96 96 91 85 76 66 62 65 69 62 55 53 54 61 66 74 78 77 80 83 71 63 53 45 37 37 39 39 45 47 49 52
87 86 74 77 86 85 83 86 85 86 92 98 95 96 83 69 60 57 59 61 68 53 44 44 48 51 52 61 71 80 83 77 66 50 39 37 38 38 42 52 57 62 61 57
89 73 75 83 85 87 90 91 89 89 95 93 87 84 70 60 53 51 51 52 52 49 41 42 48 54 62 71 81 86 80 68 45 38 41 40 39 49 60 66 65 62 63 63
84 75 77 84 88 89 91 86 86 91 89 82 69 58 52 51 51 49 49 40 38 43 43 46 54 64 75 80 86 85 71 49 38 41 43 40 49 62 68 70 71 71 74 73
76 85 94 93 88 89 85 80 75 67 60 55 53 55 53 49 43 39 41 44 41 41 47 55 65 76 85 87 85 70 48 40 38 41 46 48 58 66 75 77 84 84 81 75
83 87 85 82 84 84 75 62 60 58 56 51 42 45 48 43 41 44 47 52 42 44 51 60 67 81 87 84 65 44 38 36 40 44 49 56 64 66 66 84 88 81 78 75
81 77 74 74 77 67 66 61 53 49 45 48 43 41 44 46 48 48 43 39 44 51 55 58 76 85 83 60 37 31 33 38 42 47 54 63 68 70 81 83 82 83 81 82
72 66 66 66 64 58 49 43 39 38 42 39 40 44 48 48 44 38 35 41 50 54 57 71 84 79 58 36 31 34 36 38 45 52 59 65 71 82 86 85 85 89 88 76
63 62 60 55 50 46 45 46 49 45 40 41 44 42 41 42 41 41 44 51 53 60 69 81 78 62 36 28 32 33 37 44 50 54 60 68 79 84 87 84 88 93 87 78
69 60 53 47 45 47 45 44 43 42 40 38 37 39 41 42 42 46 53 58 66 75 87 82 66 39 29 28 35 43 46 49 51 55 62 72 79 85 85 83 90 90 80 80
56 51 50 48 47 46 42 43 47 40 37 40 45 44 43 48 53 55 64 73 80 92 87 73 49 34 30 34 42 46 50 51 53 57 65 73 80 82 80 80 89 86 77 83
51 45 43 44 44 44 46 47 43 42 43 44 42 47 53 62 67 69 79 85 96 91 78 58 37 35 36 38 41 45 48 55 57 60 65 70 78 80 77 77 88 83 78 87
43 44 44 44 44 40 38 41 44 41 38 44 48 52 60 73 76 80 89 96 96 87 66 47 37 38 36 38 42 47 48 55 60 63 66 71 75 78 74 74 81 89 81 84
41 38 36 37 36 35 38 42 44 44 46 51 58 59 71 79 84 89 96 95 94 80 59 48 41 38 36 39 43 50 50 55 63 67 70 71 74 77 76 73 75 86 83 78
39 38 35 37 39 38 36 40 48 53 54 55 62 69 75 75 79 91 92 91 87 72 54 48 42 37 40 41 47 53 51 55 63 70 73 75 74 74 76 74 73 77 83 75
37 38 40 40 42 43 43 50 53 57 61 64 67 73 75 67 83 92 90 90 80 66 53 46 43 44 43 44 52 54 52 58 63 70 76 76 76 77 77 77 75 74 72 72
42 42 43 46 49 50 49 51 59 65 70 71 74 77 72 71 90 90 91 87 78 65 53 50 45 45 47 50 54 52 56 60 63 70 76 78 80 79 78 78 77 77 74 72
47 47 50 53 53 54 54 58 63 67 73 74 73 67 66 79 90 91 89 85 80 70 63 55 51 49 50 55 52 53 56 60 63 72 75 75 76 77 79 80 80 79 78 77
51 52 51 54 59 61 61 67 69 72 74 74 76 74 73 85 93 93 91 90 84 72 66 58 55 55 54 51 52 54 55 59 66 70 71 72 75 77 79 80 81 80 83 82
50 52 52 54 61 62 69 78 77 75 82 81 80 80 77 82 92 94 94 92 87 76 68 60 53 50 52 56 59 58 58 61 65 69 74 75 76 78 81 82 82 83 82 86

GFSNGP_prec_cthk_009.txt.gz
RH
45 45 47 47 50 55 62 64 74 62 63 57 57 60 60 62 65 65 67 71 70 72 71 67 61 55 53 56 59 59 61 64 66 68 72 71 69 71 75 83 85 91 92 92
53 55 54 54 50 60 66 68 70 69 66 60 60 62 68 69 68 69 72 75 76 73 71 64 59 58 60 64 58 57 65 64 65 68 62 58 61 64 73 80 81 78 76 74
57 61 59 53 52 62 65 65 65 66 60 62 65 72 71 71 72 75 76 80 84 78 64 62 70 66 63 51 50 52 53 55 49 52 55 60 64 64 62 58 56 56 57 57
72 70 73 48 59 62 65 61 63 63 66 70 73 76 77 78 80 84 85 87 77 70 71 75 65 56 46 46 51 52 43 49 56 62 63 66 63 59 55 54 54 51 44 39
79 81 72 58 60 62 67 62 65 71 71 73 77 80 83 82 87 88 88 79 74 72 73 68 55 43 36 39 45 46 48 57 65 67 69 65 60 56 49 40 34 34 34 36
86 91 84 65 66 68 71 72 76 78 78 82 82 85 84 90 91 90 77 73 72 69 65 57 42 31 32 37 46 54 61 65 73 77 69 66 53 40 35 34 34 34 40 47
85 89 76 68 70 73 85 85 86 87 88 86 88 87 88 90 84 79 75 72 68 63 53 44 34 31 34 39 43 55 65 75 84 80 73 49 40 38 35 35 39 49 54 59
85 87 82 70 76 81 82 87 87 88 87 89 89 89 91 83 76 74 64 55 51 46 41 40 42 39 34 39 47 57 73 84 86 75 48 41 42 40 37 47 56 58 58 64
85 78 74 75 78 80 87 91 92 90 89 87 88 79 75 68 66 53 46 41 36 40 39 39 46 43 40 45 59 71 81 89 77 52 43 41 44 41 51 60 64 63 69 75
89 77 77 77 84 87 88 91 90 90 85 78 70 60 50 46 44 45 42 36 39 40 40 43 45 48 54 61 72 80 88 81 52 47 43 44 46 51 60 67 67 72 79 82
85 77 77 78 86 88 93 89 82 71 66 59 55 50 46 44 44 42 39 39 39 39 39 42 45 52 63 70 82 89 85 54 46 44 43 46 49 59 67 71 79 82 82 81
86 82 85 89 86 93 91 80 70 65 59 52 41 39 45 44 41 40 37 38 34 35 41 44 53 59 61 72 86 85 51 42 42 41 44 48 54 62 75 84 86 84 83 85
89 85 89 87 88 81 74 68 60 52 40 41 44 45 38 34 31 35 38 38 40 39 44 50 55 59 69 84 84 47 37 37 39 42 45 52 58 65 74 86 88 83 88 91
84 87 85 86 79 70 67 59 50 46 49 49 38 34 34 34 33 37 40 40 38 41 49 56 62 73 83 81 48 36 37 39 40 46 51 54 61 69 75 79 79 85 93 86
86 82 81 77 75 70 60 52 46 41 38 37 39 39 40 35 37 39 40 42 47 54 59 67 78 86 84 56 34 34 36 43 50 52 52 57 64 70 75 76 77 88 88 76
82 79 77 73 68 59 52 46 41 37 41 41 38 36 36 38 39 41 50 56 59 66 76 83 93 89 67 35 32 34 41 47 52 54 56 61 64 68 73 71 76 88 81 79
77 69 61 54 52 46 41 40 43 43 40 37 37 37 37 36 42 50 59 68 72 79 90 97 92 76 44 35 37 39 42 48 52 57 59 62 65 67 69 67 73 86 78 84
56 52 50 45 41 39 38 37 33 32 35 35 36 36 39 45 52 55 69 74 81 90 96 92 81 56 37 37 38 41 44 49 53 57 62 64 67 68 68 63 67 80 76 80
53 46 44 45 43 37 33 32 33 35 35 36 39 41 47 51 58 66 73 80 87 92 91 85 63 46 40 38 38 41 45 52 54 58 64 68 70 70 69 66 63 72 75 76
47 45 40 34 31 33 33 36 36 35 38 44 48 49 51 58 67 73 71 81 86 90 87 72 55 48 41 40 38 42 50 55 54 58 65 70 72 73 71 70 65 65 73 71
38 34 31 32 31 31 34 38 39 40 41 48 54 57 63 65 71 74 69 79 86 88 82 65 53 49 42 41 42 45 55 57 54 58 64 70 74 75 74 73 70 69 67 68
31 32 33 33 34 33 35 38 43 43 46 51 59 66 70 71 76 75 74 85 89 88 76 62 51 48 43 44 47 50 55 54 55 59 64 71 75 76 77 77 75 70 72 65
35 35 35 37 38 37 37 42 45 50 51 59 66 72 75 76 75 71 78 89 91 87 75 64 55 52 49 46 48 54 54 53 57 60 64 72 74 73 73 74 76 75 73 73
36 36 39 40 40 41 41 43 49 54 60 67 76 79 78 77 75 75 81 88 92 84 78 70 65 57 54 54 55 54 52 56 57 59 64 69 71 71 71 73 75 79 78 75
40 40 41 42 42 43 47 52 52 56 67 76 80 83 83 84 81 80 84 92 91 90 83 73 68 62 57 56 51 52 56 58 58 61 64 68 72 72 72 73 76 78 80 80
41 42 43 46 51 52 54 58 57 61 72 74 80 83 85 84 82 82 86 89 92 92 89 78 68 60 52 49 54 57 58 60 61 62 65 69 75 76 74 74 75 77 80 82
46 50 50 50 56 56 60 64 64 64 70 76 77 86 88 90 91 91 91 91 94 94 90 76 60 55 54 57 59 60 61 64 65 68 70 74 80 80 76 76 74 76 79 82

GFSNGP_prec_cthk_012.txt.gz
RH
38 37 38 46 48 49 50 58 69 62 61 64 63 61 61 65 70 71 75 77 76 75 74 67 65 71 74 71 62 56 53 47 41 37 44 50 53 58 62 64 66 68 67 65
44 43 42 45 47 52 58 61 66 68 69 65 65 67 71 72 74 77 79 78 75 70 65 67 71 72 65 62 55 44 42 39 39 44 50 56 61 62 60 62 63 59 58 57
57 53 51 59 50 52 57 64 68 71 68 68 71 75 76 75 77 80 81 77 64 64 65 70 73 67 60 55 43 38 37 39 45 51 58 61 65 63 64 65 59 48 39 38
68 67 67 51 52 54 58 60 63 64 68 71 73 76 78 78 79 80 78 72 69 71 69 63 62 61 54 43 35 36 41 48 52 56 61 68 68 72 67 52 39 38 38 37
75 69 54 51 53 59 62 60 63 69 71 73 75 75 80 81 80 77 75 78 76 66 61 62 57 44 42 38 42 46 50 52 57 61 70 74 78 68 45 37 35 36 39 48
76 82 76 63 60 61 64 69 73 73 77 79 81 85 84 86 89 83 84 72 58 54 54 53 53 51 48 48 46 44 46 50 57 70 78 81 63 42 39 38 38 46 54 59
74 84 71 66 68 70 80 83 79 82 85 86 88 90 91 89 79 66 58 55 51 49 46 49 51 50 51 50 47 46 53 58 68 80 86 64 46 41 41 41 48 55 59 60
80 84 87 72 74 86 76 76 82 83 87 85 88 86 79 66 59 56 53 47 44 41 39 40 44 49 50 48 50 53 64 71 77 87 74 50 46 43 45 49 57 63 68 78
72 69 76 79 83 79 80 84 88 87 86 86 82 76 63 54 52 47 45 45 42 40 38 37 43 50 53 50 54 61 71 77 88 88 54 49 45 45 49 58 63 72 80 85
75 69 78 82 83 81 84 86 87 86 83 77 73 61 51 46 46 44 39 38 38 37 36 39 42 48 54 54 63 69 74 84 92 58 48 46 46 51 58 64 68 78 84 85
76 76 81 82 87 85 85 96 91 83 74 66 52 46 44 43 40 40 40 40 38 39 41 39 41 45 52 60 66 71 80 91 57 45 46 46 50 56 62 66 72 78 80 88
88 86 88 90 83 85 89 85 80 72 64 54 48 45 43 39 42 39 37 38 39 39 42 44 50 55 63 71 75 82 85 53 42 42 46 51 57 60 62 66 72 71 80 91
88 88 92 90 89 88 83 78 73 67 59 51 43 43 43 41 36 35 40 43 46 46 50 56 61 68 77 80 86 80 49 38 39 42 51 56 57 62 66 71 71 75 88 85
90 92 92 92 92 81 77 72 65 58 50 45 43 42 37 35 37 39 42 44 48 53 62 64 72 81 86 94 82 51 37 34 40 48 53 56 61 63 66 67 72 81 90 81
87 92 91 88 79 75 68 60 50 46 43 42 40 38 39 39 37 37 41 47 54 62 68 72 82 92 95 85 58 39 40 42 43 48 52 58 62 64 67 66 67 76 87 86
88 86 78 74 68 58 48 45 43 41 38 34 32 32 33 35 38 40 44 52 56 63 70 80 91 93 87 67 45 42 43 44 44 50 53 58 65 68 69 67 64 69 79 80
80 71 62 53 46 43 42 39 36 31 28 30 29 30 31 35 39 44 50 57 64 66 74 84 89 87 72 50 42 42 43 44 45 54 55 58 66 71 71 68 63 63 69 73
58 51 49 47 43 40 38 33 28 29 31 31 31 34 37 43 48 51 58 63 67 66 76 84 84 76 53 47 42 42 42 44 49 56 55 59 66 70 72 70 66 64 64 65
51 48 46 44 41 34 29 28 30 31 31 33 35 36 41 48 56 63 67 70 71 67 76 82 80 66 51 47 42 43 43 46 53 58 56 58 63 71 73 72 69 66 66 64
47 46 43 38 31 31 31 32 32 31 35 38 40 41 43 51 60 69 72 76 76 71 78 85 78 62 51 48 42 44 47 50 55 58 57 60 62 70 75 73 71 68 68 68
44 41 34 31 30 31 33 34 34 34 34 40 44 45 53 58 67 74 75 77 74 76 86 86 74 63 55 50 46 45 48 51 58 57 59 61 66 71 73 71 69 69 69 70
35 33 32 32 32 31 32 33 35 37 39 41 46 52 59 67 75 76 79 77 76 81 87 83 75 67 62 54 54 50 50 55 56 59 60 62 66 68 71 70 69 70 71 72
35 35 35 34 35 32 32 33 36 41 44 47 51 58 65 74 79 80 82 82 82 80 84 83 78 71 66 62 57 57 58 56 56 60 60 62 64 64 69 71 70 71 73 73
37 37 37 37 36 37 33 35 40 44 50 50 55 61 67 72 78 83 84 84 84 85 84 87 82 74 69 65 59 58 54 53 59 62 62 63 65 67 70 74 72 71 71 73
38 37 37 37 39 41 41 41 41 46 53 57 60 63 66 76 82 82 85 88 91 86 87 90 88 79 69 61 52 51 56 58 61 63 63 66 70 72 73 76 74 72 71 71
39 40 41 43 47 49 51 52 51 56 60 61 64 69 67 75 82 87 90 93 94 93 92 92 92 80 61 55 55 58 60 61 62 62 64 69 74 77 77 79 77 74 72 71
41 42 46 50 58 61 64 66 66 64 67 69 69 73 74 75 82 88 91 91 93 96 96 96 90 76 62 57 58 60 63 63 64 66 69 74 80 81 82 83 80 78 77 74